Regional Weather Roundup
Issued by NWS

Home | Current Version | Previous Version | Graphics & Text | Print | Product List | Glossary On
Versions: 1 2 3 4 5 6 7 8 9 10 11 12 13 14 15 16 17 18 19 20 21 22 23 24 25 26 27 28 29 30 31 32 33 34 35 36 37 38 39 40 41 42 43 44 45 46 47 48 49 50
000
ASUS43 KOAX 201610
RWRNE

WEATHER ROUNDUP FOR NEBRASKA
NATIONAL WEATHER SERVICE OMAHA NE
1000 AM CST TUE FEB 20 2018

NOTES: SATELLITE DATA IS BEING USED TO AUGMENT CLOUD COVER ABOVE
       12000 FEET.
       "FAIR" INDICATES FEW OR NO CLOUDS BELOW 12,000 FEET WITH NO
       SIGNIFICANT WEATHER AND/OR OBSTRUCTIONS TO VISIBILITY.


NEZ001>004-019>022-054>056-201700-
NEBRASKA PANHANDLE

CITY           SKY/WX    TMP DP  RH WIND       PRES   REMARKS
SCOTTSBLUFF    SUNNY     -4 -11  72 NW6       30.04S WCI -16
ALLIANCE       SUNNY    -11 -15  82 W6        30.03R WCI -25
CHADRON        SUNNY     -4 -12  68 W16       30.10S WCI -25
GORDON         FAIR      -3  -9  77 W7        30.05R WCI -17
KIMBALL        SUNNY     -8 -14  73 W12       29.95R WCI -27
SIDNEY         SUNNY     -1  -9  68 NW9       30.02R WCI -16
$$

NEZ057>060-069>072-079>082-201700-
SOUTHWEST NEBRASKA

CITY           SKY/WX    TMP DP  RH WIND       PRES   REMARKS
NORTH PLATTE   SUNNY      8  -3  61 NW15      30.10R WCI  -9
IMPERIAL       SUNNY      6  -3  66 NW17      30.08R WCI -13
LEXINGTON      SUNNY      9   0  67 NW17      30.14R WCI -10
MCCOOK         MOSUNNY   10   0  63 NW17      30.14R WCI  -8
OGALLALA       SUNNY      5  -4  66 NW15      30.09R HAZE    WCI -13
$$

NEZ005>010-023>029-035>040-094-201700-
NORTH CENTRAL NEBRASKA

CITY           SKY/WX    TMP DP  RH WIND       PRES   REMARKS
VALENTINE      MOSUNNY    4  -5  66 NW14      30.13R WCI -14
AINSWORTH      SUNNY      4  -2  75 NW20      30.10R WCI -17
BROKEN BOW     SUNNY      6  -3  66 N16G23    30.10R WCI -12
O`NEILL        PTSUNNY    6   0  76 NW18      30.12S WCI -14
ORD            SUNNY      7  -1  70 NW21G28   30.12R WCI -13
THEDFORD       SUNNY      5  -3  70 NW15G22   30.10R WCI -13
$$

NEZ041-046>049-061>064-073>077-083>087-201700-
SOUTH CENTRAL NEBRASKA

CITY           SKY/WX    TMP DP  RH WIND       PRES   REMARKS
GRAND ISLAND   SUNNY     12   3  67 NW22G29   30.11R WCI  -7
AURORA         CLOUDY    11   3  70 NW24      30.11S WCI  -8
HASTINGS       CLOUDY    11   2  67 N23       30.11R WCI  -9
HEBRON         CLOUDY    16   8  73 N17G26    30.10R WCI   0
HOLDREGE       CLOUDY    10   2  71 NW17      30.12R WCI  -8
KEARNEY        CLOUDY     8  -1  66 N22       30.13R WCI -12
YORK           CLOUDY    12   7  79 NW25G31   30.09F WCI  -8
$$

NEZ011>018-030>034-042>045-201700-
NORTHEAST NEBRASKA

CITY           SKY/WX    TMP DP  RH WIND       PRES   REMARKS
NORFOLK        CLOUDY     8   3  80 NW16      30.08R WCI -10
ALBION         CLOUDY     9   2  72 NW24      30.11R WCI -12
BLAIR          CLOUDY    15  11  83 NW10G16   30.06S WCI   2
COLUMBUS       CLOUDY    12   5  73 NW22      30.12R WCI  -7
FREMONT        CLOUDY    14   9  80 NW20      30.11R WCI  -3
TEKAMAH        CLOUDY    13   7  77 NW25G32   30.12R WCI  -7
WAYNE          CLOUDY     9   4  78 NW14G25   30.09R WCI  -7
$$

NEZ050>053-065>068-078-088>093-201700-
SOUTHEAST NEBRASKA

CITY           SKY/WX    TMP DP  RH WIND       PRES   REMARKS
LINCOLN        CLOUDY    16   8  71 NW23      30.11R WCI  -2
OMAHA EPPLEY   CLOUDY    17  11  77 NW18      30.08R WCI   1
BEATRICE       CLOUDY    19  13  79 NW23      30.08S WCI   1
FALLS CITY     CLOUDY    21  16  81 NW18G28   30.05R WCI   6
NEBRASKA CITY  CLOUDY    20  17  90 NW20G25   30.06R WCI   4
PLATTSMOUTH    CLOUDY    18  14  85 NW14      30.06S WCI   4
$$

NEZ044-045-051>053-067-201700-
OMAHA AREA

CITY           SKY/WX    TMP DP  RH WIND       PRES   REMARKS
OMAHA EPPLEY   CLOUDY    17  11  77 NW18      30.08R WCI   1
BLAIR          CLOUDY    15  11  83 NW10G16   30.06S WCI   2
FREMONT        CLOUDY    14   9  80 NW20      30.11R WCI  -3
MILLARD        CLOUDY    17  10  75 NW16G24   30.10R WCI   1
OFFUTT AFB     FLURRIES  19  13  80 NW18      30.07R WCI   3
PLATTSMOUTH    CLOUDY    18  14  85 NW14      30.06S WCI   4
WAHOO          PTSUNNY   15   9  75 NW22G28   30.09S WCI  -3
$$



USA.gov is the U.S. government's official web portal to all federal, state and local government web resources and services.